DO3HUM-5 Weather Reports


Display with metric or nautical units.
time (UTC)temp
F
wind
direction
speed
MPH
gust
MPH
rain 1hr
in
rain 24hr
in
rain mn
in
humidity
%
barometer
mb
20260504050533 58 0.0 0.0 0.01 0.01 0.01 82 1019.9
20260504045531 57 0.0 0.0 0.01 0.01 0.01 83 1019.7
20260504044526 56 0.0 0.0 0.01 0.01 0.01 84 1019.7
20260504043523 56 0.0 0.0 0.00 0.00 0.00 85 1019.7
20260504042521 56 0.0 0.0 0.00 0.00 0.00 84 1019.7
20260504041517 56 0.0 0.0 0.00 0.00 0.00 82 1019.7
20260504040614 57 0.0 0.0 0.00 0.00 0.00 78 1019.6
20260504035612 57 0.0 0.0 0.00 0.00 0.00 74 1019.5
20260504034610 57 0.0 0.0 0.00 0.00 0.00 75 1019.6
20260504033605 57 0.0 0.0 0.00 0.00 0.00 73 1019.7
20260504032603 57 0.0 0.0 0.00 0.00 0.00 75 1019.8
20260504031601 58 0.0 0.0 0.00 0.00 0.00 74 1019.9
20260504030554 58 0.0 0.0 0.00 0.00 0.00 72 1019.8
20260504025551 59 0.0 0.0 0.00 0.00 0.00 72 1019.9
20260504024548 59 0.0 0.0 0.00 0.00 0.00 70 1019.5
20260504023544 59 0.0 0.0 0.00 0.00 0.00 70 1019.4
20260504022541 60 0.0 2.0 0.00 0.00 0.00 69 1019.5
20260504021538 60 0.0 0.0 0.00 0.00 0.00 69 1019.5
20260504020536 59 272 0.0 4.0 0.00 0.00 0.00 68 1019.7
20260504015533 59 0.0 0.0 0.00 0.00 0.00 70 1019.7
20260504014529 60 0.0 0.0 0.00 0.00 0.00 69 1019.7
20260504013527 59 0.0 0.0 0.00 0.00 0.00 69 1019.7
20260504012524 60 0.0 0.0 0.00 0.00 0.00 69 1019.6
20260504011523 60 0.0 0.0 0.00 0.00 0.00 68 1019.6
20260504010520 61 248 0.0 2.0 0.00 0.00 0.00 65 1019.8
20260504005515 59 0.0 0.0 0.00 0.00 0.00 68 1019.6
20260504004613 58 0.0 0.0 0.00 0.00 0.00 69 1019.4
20260504003610 58 0.0 0.0 0.00 0.00 0.00 69 1019.4
20260504002609 58 0.0 0.0 0.00 0.00 0.00 68 1019.4
20260504001605 59 0.0 0.0 0.00 0.00 0.00 68 1019.4
20260504000603 59 0.0 0.0 0.00 0.00 0.00 64 1019.4
20260503235559 59 0.0 0.0 0.00 0.00 0.00 67 1019.4
20260503234556 59 0.0 0.0 0.00 0.00 0.00 67 1019.4
20260503233555 59 0.0 0.0 0.00 0.00 0.00 69 1019.3
20260503232551 60 0.0 0.0 0.00 0.00 0.00 68 1019.3
20260503231549 60 0.0 0.0 0.00 0.00 0.00 68 1019.0
20260503230545 60 0.0 0.0 0.00 0.00 0.00 65 1019.0
20260503225544 60 0.0 0.0 0.00 0.00 0.00 66 1019.0
20260503224539 60 0.0 0.0 0.00 0.00 0.00 66 1018.9
20260503223537 61 0.0 0.0 0.00 0.00 0.00 65 1018.8
20260503222533 61 0.0 0.0 0.00 0.00 0.00 65 1018.8
20260503221532 61 0.0 0.0 0.00 0.00 0.00 65 1018.7
20260503220528 61 0.0 0.0 0.00 0.00 0.00 65 1018.8
20260503215527 60 0.0 0.0 0.00 0.00 0.00 67 1018.8
20260503214522 61 0.0 0.0 0.00 0.00 0.00 65 1018.7
20260503213521 61 0.0 0.0 0.00 0.00 0.00 64 1018.7
20260503212516 61 0.0 0.0 0.00 0.00 0.00 65 1018.7
20260503211613 61 0.0 0.0 0.00 0.00 0.00 65 1018.6
20260503210611 61 0.0 0.0 0.00 0.00 0.00 63 1018.5
20260503205608 62 0.0 0.0 0.00 0.00 0.00 66 1018.4
20260503204606 62 0.0 0.0 0.00 0.00 0.00 65 1018.4
20260503203605 63 0.0 0.0 0.00 0.00 0.00 64 1018.3
20260503202555 64 0.0 0.0 0.00 0.00 0.00 61 1018.3
20260503201555 64 0.0 0.0 0.00 0.00 0.00 60 1018.3
20260503200550 64 0.0 0.0 0.00 0.00 0.00 59 1018.2
20260503195548 64 0.0 0.0 0.00 0.00 0.00 58 1018.3
20260503194544 65 0.0 0.0 0.00 0.00 0.00 57 1018.2
20260503193541 66 0.0 0.0 0.00 0.00 0.00 55 1018.2
20260503192539 66 0.0 0.0 0.00 0.00 0.00 54 1018.2
20260503191536 66 0.0 0.0 0.00 0.00 0.00 54 1018.0
20260503190533 68 0.0 0.0 0.00 0.00 0.00 51 1018.0
20260503185532 69 0.0 0.0 0.00 0.00 0.00 50 1018.0
20260503184527 70 0.0 0.0 0.00 0.00 0.00 48 1017.9
20260503183526 70 0.0 0.0 0.00 0.00 0.00 47 1017.8
20260503182522 71 0.0 0.0 0.00 0.00 0.00 46 1017.7
20260503181519 72 293 0.0 2.0 0.00 0.00 0.00 44 1017.6
20260503180516 73 293 1.0 2.0 0.00 0.00 0.00 43 1017.7
20260503175613 73 0.0 2.0 0.00 0.00 0.00 43 1017.7
20260503174611 74 225 0.0 2.0 0.00 0.00 0.00 43 1017.7
20260503173610 75 307 1.0 4.0 0.00 0.00 0.00 40 1017.6
20260503172607 76 322 2.0 4.0 0.00 0.00 0.00 41 1017.6
20260503171602 76 252 3.0 7.0 0.00 0.00 0.00 41 1017.5
20260503170600 77 287 1.0 9.0 0.00 0.00 0.00 40 1017.5
20260503150527 81 274 2.0 4.0 0.00 0.00 0.00 36 1017.8
20260503130553 81 261 1.0 4.0 0.00 0.00 0.00 37 1019.4
20260503110613 82 170 2.0 6.0 0.00 0.00 0.00 38 1020.2
20260503081525 75 72 1.0 4.0 0.00 0.00 0.00 46 1021.2
20260503080519 72 285 0.0 4.0 0.00 0.00 0.00 51 1021.2
20260503072606 68 270 1.0 4.0 0.00 0.00 0.00 54 1021.3
20260503071603 67 256 0.0 4.0 0.00 0.00 0.00 56 1021.3
20260503070600 65 284 1.0 2.0 0.00 0.00 0.00 54 1021.4